GW3271 Weather Reports


time (UTC)temp
C
wind
direction
speed
KPH
gust
KPH
rain 1hr
cm
rain 24hr
cm
rain mn
cm
humidity
%
barometer
mb
20260506224527 18 146 0.0 8.0 0.00 0.05 0.05 74 1012.2
20260506223028 18 49 1.6 11.3 0.00 0.05 0.05 73 1012.2
20260506221529 20 307 0.0 9.7 0.00 0.05 0.05 71 1012.3
20260506220036 20 60 1.6 11.3 0.00 0.05 0.05 71 1012.1
20260506214528 20 30 1.6 16.1 0.00 0.05 0.05 71 1012.0
20260506213031 20 53 4.8 19.3 0.00 0.05 0.05 70 1011.7
20260506211532 21 72 1.6 12.9 0.00 0.05 0.05 68 1011.7
20260506210030 22 298 4.8 17.7 0.00 0.05 0.05 68 1011.9
20260506204530 22 76 3.2 17.7 0.00 0.05 0.05 68 1012.1
20260506203030 22 134 3.2 11.3 0.00 0.05 0.05 71 1012.0
20260506201529 22 162 4.8 17.7 0.00 0.05 0.05 72 1011.8
20260506200026 22 78 1.6 16.1 0.00 0.05 0.05 72 1011.5
20260506194528 24 129 3.2 14.5 0.00 0.05 0.05 70 1011.2
20260506193030 25 53 1.6 12.9 0.00 0.05 0.05 70 1011.1
20260506191527 25 113 3.2 12.9 0.00 0.05 0.05 69 1011.3
20260506190028 26 46 4.8 9.7 0.00 0.05 0.05 68 1011.5
20260506184526 25 63 3.2 11.3 0.00 0.05 0.05 71 1011.4
20260506183028 24 110 1.6 8.0 0.00 0.05 0.05 73 1011.6
20260506181528 23 84 0.0 11.3 0.00 0.05 0.05 76 1011.7
20260506180028 23 60 1.6 9.7 0.00 0.05 0.05 76 1011.5
20260506174529 21 131 1.6 9.7 0.00 0.05 0.05 79 1011.5
20260506173029 21 75 1.6 8.0 0.05 0.05 0.05 81 1011.9
20260506171528 19 66 4.8 12.9 0.05 0.05 0.05 86 1011.7
20260506170026 18 163 8.0 16.1 0.05 0.05 0.05 89 1011.9
20260506164530 18 49 4.8 12.9 0.05 0.05 0.05 91 1012.1
20260506163032 17 232 6.4 20.9 0.00 0.00 0.00 87 1012.7
20260506161533 18 25 6.4 14.5 0.00 0.00 0.00 87 1013.0
20260506160029 20 82 9.7 24.1 0.00 0.00 0.00 84 1012.9
20260506154530 22 79 4.8 19.3 0.00 0.00 0.00 80 1012.4
20260506153027 25 0 0.0 3.2 0.00 0.00 0.00 86 1011.9
20260506151529 25 85 0.0 3.2 0.00 0.00 0.00 86 1011.4
20260506150027 25 72 1.6 3.2 0.00 0.00 0.00 86 1011.2
20260506144527 25 0 0.0 6.4 0.00 0.00 0.00 86 1010.7
20260506143030 25 0 0.0 6.4 0.00 0.00 0.00 86 1010.4
20260506141533 25 58 1.6 3.2 0.00 0.00 0.00 87 1010.1
20260506140030 24 73 1.6 3.2 0.00 0.00 0.00 88 1010.5
20260506134529 23 95 1.6 3.2 0.00 0.00 0.00 89 1009.7
20260506133027 23 56 0.0 4.8 0.00 0.00 0.00 89 1009.7
20260506131528 23 0 0.0 6.4 0.00 0.00 0.00 89 1009.6
20260506130027 23 53 1.6 6.4 0.00 0.00 0.00 89 1009.5
20260506124526 23 96 0.0 4.8 0.00 0.00 0.00 89 1009.4
20260506123026 23 89 1.6 4.8 0.00 0.00 0.00 89 1009.3
20260506121529 23 56 0.0 4.8 0.00 0.00 0.00 89 1009.3
20260506120030 23 0 0.0 1.6 0.00 0.00 0.00 89 1009.0
20260506114527 23 0 0.0 1.6 0.00 0.00 0.00 88 1009.1
20260506113027 23 0 0.0 1.6 0.00 0.00 0.00 88 1009.1
20260506111526 23 0 0.0 1.6 0.00 0.00 0.00 88 1009.2
20260506110030 24 243 0.0 1.6 0.00 0.00 0.00 88 1009.1
20260506104529 24 0 0.0 1.6 0.00 0.00 0.00 88 1009.0
20260506103026 23 0 0.0 1.6 0.00 0.00 0.00 88 1009.0
20260506101525 23 0 1.6 9.7 0.00 0.00 0.00 88 1008.7
20260506100028 23 268 0.0 6.4 0.00 0.00 0.00 88 1008.6
20260506094528 23 252 1.6 8.0 0.00 0.00 0.00 88 1008.3
20260506093034 23 248 0.0 8.0 0.00 0.00 0.00 88 1008.1
20260506091531 23 259 1.6 8.0 0.00 0.00 0.00 88 1008.0
20260506090027 23 253 1.6 9.7 0.00 0.00 0.00 88 1007.8
20260506084534 24 219 3.2 14.5 0.00 0.00 0.00 88 1007.9
20260506083030 24 255 3.2 6.4 0.00 0.00 0.00 88 1007.9
20260506081529 24 250 1.6 6.4 0.00 0.00 0.00 88 1007.9
20260506073028 24 214 1.6 6.4 0.00 0.00 0.00 87 1008.2
20260506071529 24 229 0.0 6.4 0.00 0.00 0.00 87 1008.5
20260506061528 24 263 3.2 8.0 0.00 0.00 0.00 87 1008.6
20260506044538 25 199 3.2 9.7 0.00 0.00 0.00 86 1008.6
20260506043030 25 57 0.0 6.4 0.00 0.00 0.00 86 1008.6
20260506041541 25 302 1.6 8.0 0.00 0.00 0.00 85 1008.3
20260506040033 25 271 0.0 3.2 0.00 0.00 0.00 85 1008.1
20260506034531 25 231 0.0 6.4 0.00 0.00 0.00 84 1007.9
20260506033026 25 0 0.0 8.0 0.00 0.00 0.00 84 1007.9
20260506031530 25 0 0.0 4.8 0.00 0.00 0.00 83 1007.6
20260506030030 25 330 0.0 8.0 0.00 0.00 0.00 82 1007.5
20260506024528 26 30 0.0 3.2 0.00 0.00 0.00 81 1007.4
20260506023030 26 333 1.6 8.0 0.00 0.00 0.00 80 1007.0
20260506021528 26 0 0.0 3.2 0.00 0.00 0.00 78 1006.6
20260506020026 26 108 0.0 6.4 0.00 0.00 0.00 77 1006.3
20260506014528 27 18 0.0 4.8 0.00 0.00 0.00 76 1006.1
20260506013032 27 79 1.6 4.8 0.00 0.00 0.00 75 1006.2
20260506011539 27 241 0.0 6.4 0.00 0.00 0.00 75 1006.3
20260506010029 27 0 0.0 4.8 0.00 0.00 0.00 74 1006.3
20260506004539 27 0 0.0 3.2 0.00 0.00 0.00 73 1006.4
20260506003031 28 266 0.0 6.4 0.00 0.00 0.00 72 1006.2
20260506001527 28 222 0.0 8.0 0.00 0.00 0.00 72 1006.1
20260506000027 28 254 1.6 6.4 0.00 0.00 0.00 71 1006.1
20260505234530 28 209 0.0 8.0 0.00 0.00 0.00 71 1006.0
20260505233032 28 247 1.6 6.4 0.00 0.00 0.00 70 1005.9
20260505231536 28 269 3.2 8.0 0.00 0.00 0.00 70 1005.8
20260505230028 28 230 0.0 8.0 0.00 0.00 0.00 69 1005.6